Current weather by "City, St" or "zip code"  
 

Current Conditions: Skyhaven Airport, MO

Partly Cloudy


54.0 F

Last Updated on Oct 21 2021, 11:55 am CDT
Humidity: 63%
Wind Speed: W 8.1 mph
Barometer 30.18 in
Dewpoint: 41.0 F
Visibility: 10.00 mi
Precip: --
Heat Index: NA
Wind Chill: 52 F
Current conditions at:

Skyhaven Airport, MO (KRCM)

Lat: 38.7842 Lon: 93.8029

Local Radar Image active severe weather and emergency alerts image image weather storm and storm spotter reports image weather observation monitoring service image
Local
Radar
Active
Alerts
Storm Reports Obs
Monitoring

Sign-up For Email & Text Message Weather Alert Notification Services



Advertise Here

Observation History for Skyhaven Airport, MO


Time Wind
(mph)
Vis
(mi)
Weather Precip (in) Temperature (F) Relative
Humidity
Wind
Chill
(F)
Heat
Index
(F)
Pressure
Air Dwpt altimeter
(in)
sea level
(mb)
Rmks
11:55 am CDT W 8.1 10.00 Partly Cloudy -- 54.0 41.0 63% 52 NA 30.18 M
10:55 am CDT W 10.4 10.00 Mostly Cloudy -- 50.0 37.4 62% 46 NA 30.18 M
9:55 am CDT W 11.5 G 17.3 10.00 Fair -- 48.0 37.4 66% 43 NA 30.17 M
8:55 am CDT W 6.9 10.00 Partly Cloudy -- 45.0 37.4 76% 41 NA 30.16 M
7:55 am CDT W 4.6 10.00 Fair -- 43.0 35.6 76% 40 NA 30.13 M
6:55 am CDT W 8.1 10.00 Mostly Cloudy -- 43.0 37.4 81% 38 NA 30.12 M
5:55 am CDT W 4.6 10.00 Fair -- 43.0 35.6 76% 40 NA 30.10 M
4:55 am CDT W 9.2 10.00 Fair -- 45.0 37.4 76% 40 NA 30.09 M
3:55 am CDT W 4.6 10.00 Fair -- 45.0 37.4 76% 43 NA 30.08 M
2:55 am CDT W 5.8 10.00 Fair -- 46.0 39.2 76% 43 NA 30.08 M
1:55 am CDT W 4.6 10.00 Fair -- 46.0 39.2 76% 44 NA 30.07 M
12:55 am CDT W 3.5 10.00 Fair -- 48.0 41.0 76% NA NA 30.07 M
11:55 pm CDT W 4.6 10.00 Fair -- 50.0 41.0 71% 48 NA 30.07 M
10:55 pm CDT NW 4.6 10.00 Fair -- 52.0 41.0 67% 51 NA 30.07 M
9:55 pm CDT W 4.6 10.00 Fair -- 54.0 44.6 72% 53 NA 30.05 M
8:55 pm CDT W 5.8 10.00 Fair -- 55.0 44.6 67% 54 NA 30.03 M
7:55 pm CDT W 9.2 10.00 Fair -- 61.0 46.4 59% 60 NA 30.01 M
6:55 pm CDT SW 6.9 10.00 Fair -- 61.0 50.0 68% 60 NA 30.00 M
5:55 pm CDT W 5.8 10.00 Fair -- 66.0 48.2 52% NA NA 29.99 M
4:55 pm CDT SW 6.9 10.00 Fair -- 72.0 53.6 53% NA NA 29.97 M
3:55 pm CDT SW 9.2 10.00 Partly Cloudy -- 70.0 55.4 60% NA NA 29.98 M
2:55 pm CDT SW 13.8 10.00 Mostly Cloudy -- 70.0 55.4 60% NA NA 29.99 M
1:55 pm CDT SW 15.0 10.00 Overcast -- 66.0 55.4 68% NA NA 29.99 M
12:55 pm CDT SW 13.8 10.00 Overcast -- 66.0 55.4 68% NA NA 30.01 M

Regional Weather Observation


Skyhaven Airport, MO (KRCM)

Partly Cloudy
54.0 F

Whiteman Air Force Base, MO (KSZL)

Partly Cloudy
54.0 F

Mosby Midwest National Air Center Airport, MO (KGPH)

Overcast
48.0 F

Kansas City, Kansas City Downtown Airport, MO (KMKC)

Fair
53.0 F

Harrisonville Lawrence Smith Memorial Airport, MO (KLRY)

Fair
55.0 F

Olathe, Johnson County Executive Airport, KS (KOJC)

Fair
52.0 F

Advertise Here


Advertise Here